Temperature
15 15 15 15 15 15 15 15 15 14 14 14 14 14 14 14 14 14 14 14 14 14 14 14 14 13 13 13 13 13 13 13 13 13 13 13 13 13
15 15 15 15 15 15 15 15 15 15 14 14 14 14 14 14 14 14 14 13 13 13 13 13 13 13 13 13 13 13 13 13 13 13 13 13 12 12
15 15 15 15 15 15 15 15 15 15 14 14 14 14 14 14 13 13 13 13 13 13 13 13 13 13 13 13 13 13 13 13 13 12 12 12 12 12
15 15 15 15 15 15 15 15 15 14 14 14 14 13 13 13 13 13 13 13 13 13 13 13 13 13 13 13 13 12 12 12 12 12 12 12 12 12
15 15 15 15 15 15 15 15 14 14 14 14 14 13 13 13 13 13 13 13 13 13 13 13 13 12 12 12 12 12 12 12 12 12 12 12 12 11
15 15 15 15 15 15 15 15 14 14 14 14 14 13 13 13 13 13 13 13 13 13 12 12 12 12 12 12 12 12 12 12 12 11 11 11 11 11
15 15 15 15 15 15 15 14 14 14 14 14 14 13 13 13 13 13 13 13 13 12 12 12 12 12 12 12 12 11 11 11 11 11 11 11 11 11
15 15 15 15 15 15 14 14 14 14 14 14 13 13 13 13 13 13 12 12 12 12 12 12 12 12 12 11 11 11 11 11 11 11 11 10 10 10
15 15 15 15 15 14 14 14 14 14 14 13 13 13 13 13 13 12 12 12 12 12 12 12 11 11 11 11 11 11 11 10 10 10 10 10 10 10
15 15 15 15 14 14 14 14 14 13 13 13 13 13 13 12 12 12 12 12 12 11 11 11 11 11 11 10 10 10 10 10 10 10 10 10 9 9
14 14 14 14 14 14 14 14 13 13 13 13 12 12 12 12 12 12 11 11 11 11 11 10 10 10 10 10 10 10 9 9 9 9 9 9 9 9
14 14 14 14 14 14 13 13 13 13 12 12 12 12 12 11 11 11 11 11 10 10 10 10 10 9 9 9 9 9 9 9 9 9 8 8 8 8
14 14 14 14 13 13 13 13 13 12 12 12 12 12 11 11 11 10 10 10 9 9 9 9 9 9 8 8 8 8 8 8 8 8 8 7 7 7
14 13 13 13 13 13 13 13 12 12 12 11 11 11 11 10 10 10 10 9 9 9 8 8 8 8 8 7 7 7 7 7 7 7 7 7 7 6
13 13 13 13 13 12 12 12 12 12 11 11 10 10 10 10 10 10 9 9 9 8 8 8 8 7 7 7 7 7 7 7 6 6 6 6 6 6
13 13 12 12 12 12 12 12 11 11 11 10 10 9 9 9 9 9 8 8 8 8 7 7 7 7 7 6 6 6 6 6 6 5 5 5 5 5
13 12 12 12 12 11 11 11 11 10 10 10 9 9 9 9 8 8 8 7 7 7 7 7 7 6 6 6 6 6 5 5 5 5 5 4 4 4
12 12 12 11 11 11 10 10 10 10 9 9 9 9 8 8 8 7 7 7 6 6 6 6 6 6 6 5 5 5 5 4 4 4 4 3 3 3
12 12 11 11 10 10 10 9 9 9 9 9 8 8 8 7 7 7 6 6 6 6 5 5 5 4 4 4 4 4 4 3 3 3 3 3 2 3
11 11 11 10 10 10 9 9 9 8 8 8 8 7 7 7 6 6 6 5 5 5 5 4 4 4 3 3 3 3 3 3 2 2 2 2 2 2
11 11 10 10 10 9 9 9 8 8 8 7 7 7 6 6 6 5 5 5 4 4 4 4 3 3 3 3 2 2 2 2 2 1 1 1 1 1
11 10 10 10 9 9 8 8 8 7 7 7 6 6 6 5 5 5 4 4 4 4 3 3 3 3 2 2 2 1 2 2 1 1 1 1 0 0
10 10 9 9 9 8 8 8 7 7 7 6 6 6 5 5 5 4 4 4 3 3 3 3 2 2 2 1 1 1 1 1 1 1 1 1 0 -0
Wind_Speed
3 3 3 2 2 2 2 3 3 2 2 1 1 2 5 6 6 6 7 7 8 9 10 11 11 12 13 13 14 15 15 15 15 15 15 14 14 14
2 3 3 2 2 2 2 2 2 3 2 1 1 1 3 5 5 5 6 6 6 6 7 7 8 9 10 11 12 12 13 14 14 14 14 13 13 13
2 4 4 3 2 2 2 3 3 3 3 1 1 1 2 2 3 2 4 5 4 4 4 5 6 7 8 9 9 10 11 12 12 12 13 12 12 11
3 5 4 3 3 3 2 3 2 3 3 2 1 1 2 1 2 1 1 3 4 3 3 3 3 4 4 6 7 8 9 10 11 11 11 11 10 10
4 4 4 4 4 3 3 3 2 3 3 2 1 1 1 1 2 1 2 1 1 3 3 2 1 1 2 3 5 6 7 8 9 10 10 10 10 9
4 4 5 5 4 3 3 3 3 3 3 3 1 1 1 2 3 2 2 2 1 1 1 1 2 2 1 1 2 3 4 6 6 8 9 9 9 8
4 6 7 8 8 5 4 3 4 3 2 2 1 1 1 2 1 1 2 2 2 1 1 0 1 2 2 1 1 1 2 3 4 6 7 8 8 8
4 5 6 6 6 6 6 6 5 4 2 2 1 1 1 1 1 2 1 2 2 2 2 2 0 0 2 2 1 1 1 2 3 4 6 7 8 8
4 4 4 5 4 3 3 4 4 4 3 2 2 1 1 1 2 2 2 2 2 2 1 2 2 2 1 1 2 2 1 2 3 4 6 7 8 8
4 4 4 4 4 4 3 3 3 2 2 3 2 2 2 2 1 0 1 3 3 2 2 1 2 2 2 1 1 1 2 3 4 5 6 7 8 9
4 5 5 5 6 6 4 4 3 2 3 4 3 2 3 5 5 3 3 3 3 3 2 1 2 3 2 1 1 3 3 4 5 6 7 8 9 9
4 5 7 7 7 7 4 3 3 2 2 3 2 2 3 4 5 3 2 2 2 2 3 2 2 3 4 3 2 4 4 6 8 8 8 8 9 7
3 3 3 6 7 7 5 4 3 2 2 2 2 2 2 2 2 3 3 1 1 2 2 2 2 2 2 3 3 2 3 5 6 7 8 9 9 6
3 3 4 7 7 6 4 4 6 5 3 2 2 2 2 2 2 3 4 4 2 1 3 4 1 1 2 3 4 3 4 5 4 4 6 9 8 9
4 6 7 6 5 4 4 4 4 3 2 2 2 1 1 1 3 3 4 5 5 5 5 5 2 2 1 2 4 3 4 4 4 3 4 4 4 5
4 5 6 5 3 2 2 1 1 1 1 1 1 1 2 2 2 2 2 2 2 3 5 6 5 3 2 4 3 4 3 3 4 4 4 4 6 7
5 3 2 2 1 1 1 1 1 1 1 1 2 2 2 2 2 1 2 2 2 3 4 3 6 6 3 2 3 3 4 4 4 4 4 4 4 6
6 3 2 2 2 1 1 1 1 1 1 1 1 2 2 2 2 2 2 2 2 3 3 3 3 4 4 4 3 3 4 4 4 4 4 4 6 6
4 3 2 2 2 2 1 1 1 1 1 1 1 1 2 2 2 2 2 2 2 3 3 3 3 3 4 6 5 5 4 4 4 4 4 4 6 7
2 2 2 2 2 2 1 1 1 1 1 1 1 1 1 2 2 2 2 2 2 3 3 3 3 2 3 5 5 5 7 4 4 5 5 5 6 9
3 2 2 2 2 2 1 1 1 1 1 1 1 1 1 1 2 2 2 4 3 3 3 3 4 6 4 4 5 5 5 9 8 6 6 6 6 6
3 3 2 2 2 2 1 1 1 2 2 2 2 2 2 2 2 3 2 3 3 3 4 4 4 4 3 4 6 7 6 7 10 13 11 9 6 7
3 3 3 2 2 2 2 2 2 2 2 2 2 2 2 2 2 2 3 3 3 4 4 4 4 4 4 4 6 6 8 7 6 6 7 13 16 17
Wind_Direction
70 84 85 72 60 51 60 85 101 88 59 67 59 76 97 101 93 88 89 84 76 66 61 57 54 51 49 46 44 42 39 38 37 38 39 41 43 44
84 76 73 77 74 56 48 50 69 105 96 90 117 145 110 102 106 108 107 98 95 80 69 61 55 52 49 46 43 40 38 35 35 35 36 37 38 39
103 103 87 73 78 68 53 65 59 81 99 59 82 104 103 94 101 107 123 122 114 108 90 73 61 54 48 43 41 39 36 33 31 31 33 33 34 34
76 91 96 85 71 64 59 68 72 86 105 106 68 45 84 127 135 163 123 120 122 119 119 106 86 65 50 42 40 38 36 33 30 28 28 28 29 28
84 86 94 92 80 72 68 63 55 71 83 101 81 40 46 48 55 14 40 76 126 137 154 156 154 129 72 48 41 36 32 30 28 25 24 23 23 23
96 86 76 79 77 72 76 65 63 62 67 75 76 61 45 23 56 30 4 340 334 82 110 185 203 198 185 76 41 30 25 23 22 20 19 18 17 16
92 90 84 81 77 72 77 67 66 67 71 73 64 46 39 41 22 349 359 333 336 51 11 269 192 192 204 205 254 343 11 13 10 8 7 6 5 4
103 110 113 98 95 87 91 92 90 90 88 76 47 51 32 41 23 17 15 10 329 325 8 306 210 266 210 193 209 227 292 344 347 347 350 352 351 350
71 89 92 93 100 105 111 113 96 98 101 100 73 40 52 26 41 11 355 332 279 282 19 303 325 339 296 178 151 174 227 288 315 325 330 335 337 337
62 71 91 91 70 74 91 102 100 90 107 107 96 60 57 46 58 342 286 320 311 344 69 317 325 322 307 253 217 248 260 283 306 319 323 325 326 325
79 60 73 87 70 62 67 75 73 60 85 110 112 81 60 45 37 40 18 14 342 331 19 25 331 325 308 301 317 314 299 302 304 310 315 319 321 319
94 80 72 87 78 63 65 68 61 37 40 55 60 33 39 38 35 46 39 19 347 330 355 13 351 3 334 327 356 333 331 329 321 314 316 320 323 321
103 95 87 91 83 68 64 67 60 29 17 44 56 43 49 56 44 20 19 61 25 312 344 32 3 6 330 317 325 340 1 348 337 332 329 327 329 328
101 99 101 97 88 77 71 55 41 30 23 34 43 34 31 24 28 28 12 12 11 339 11 47 27 349 331 317 308 326 342 338 341 346 341 336 330 327
103 113 117 106 92 81 70 61 51 40 35 37 27 13 9 31 43 30 14 3 351 356 13 20 23 336 330 295 301 315 321 320 344 348 345 341 326 323
119 111 108 102 87 77 80 71 84 67 66 41 16 3 9 28 30 22 355 343 344 333 359 3 3 9 318 301 300 311 322 320 334 336 334 327 325 323
136 122 118 119 126 119 107 92 80 58 36 17 23 13 9 8 0 2 8 2 348 330 330 341 352 341 323 296 310 312 318 317 318 327 328 320 312 317
133 137 149 149 146 138 126 101 81 70 54 44 28 13 2 355 349 354 5 359 333 325 327 329 340 342 343 333 324 312 310 307 312 321 323 319 310 311
126 144 145 139 127 111 106 98 83 71 61 52 37 17 2 347 343 341 342 340 328 322 323 335 353 359 337 320 308 315 304 307 319 320 315 309 301 304
139 144 137 120 109 101 95 92 81 67 59 45 30 9 353 342 341 338 334 332 320 318 321 332 347 339 306 298 299 309 319 319 321 313 306 302 294 302
129 120 115 112 107 104 97 86 85 84 62 46 14 349 341 342 334 328 326 331 329 323 322 316 309 322 308 311 312 309 311 322 317 305 305 309 309 307
131 131 122 117 116 115 105 89 69 59 47 34 15 4 358 355 341 338 338 331 323 321 319 316 323 331 326 316 307 306 308 313 316 313 304 298 301 303
142 135 127 119 113 103 93 78 69 55 47 36 19 2 356 347 338 338 334 330 328 328 327 322 322 318 313 309 306 306 309 313 313 313 308 310 304 302
Height
1560 1560 1560 1561 1562 1562 1563 1563 1564 1564 1565 1566 1565 1565 1564 1563 1562 1561 1560 1559 1558 1557 1555 1554 1552 1550 1549 1547 1545 1543 1541 1539 1537 1535 1533 1531 1529 1528
1561 1561 1561 1562 1562 1563 1564 1564 1564 1565 1565 1566 1566 1565 1565 1564 1563 1562 1561 1560 1559 1558 1557 1555 1554 1552 1550 1549 1547 1545 1543 1540 1538 1536 1533 1532 1530 1528
1561 1562 1562 1562 1563 1563 1564 1564 1565 1565 1565 1566 1566 1566 1565 1565 1564 1563 1562 1561 1560 1559 1558 1557 1555 1553 1552 1550 1548 1546 1544 1542 1539 1536 1534 1532 1530 1529
1562 1562 1563 1563 1563 1564 1564 1565 1565 1565 1566 1566 1566 1566 1566 1565 1564 1564 1563 1562 1561 1560 1559 1557 1556 1554 1553 1551 1549 1547 1545 1542 1540 1537 1535 1532 1531 1529
1563 1563 1563 1564 1564 1564 1565 1565 1565 1565 1566 1566 1566 1566 1566 1565 1565 1564 1563 1562 1561 1560 1559 1558 1556 1555 1553 1551 1549 1547 1545 1543 1540 1538 1535 1533 1531 1529
1563 1564 1564 1564 1564 1565 1565 1565 1565 1565 1566 1566 1566 1566 1566 1565 1565 1563 1563 1562 1561 1560 1559 1558 1556 1555 1553 1551 1550 1547 1545 1543 1541 1538 1536 1533 1531 1530
1564 1564 1564 1565 1565 1565 1565 1565 1565 1565 1566 1566 1566 1565 1565 1564 1564 1563 1562 1561 1560 1560 1558 1557 1556 1554 1553 1551 1549 1547 1545 1543 1541 1538 1536 1534 1532 1530
1564 1564 1565 1565 1565 1565 1565 1565 1566 1566 1565 1565 1565 1565 1564 1564 1563 1562 1561 1560 1559 1559 1558 1557 1555 1553 1552 1551 1549 1547 1545 1542 1540 1538 1536 1533 1531 1529
1564 1564 1565 1565 1565 1565 1565 1565 1565 1565 1566 1565 1565 1564 1564 1563 1562 1561 1560 1559 1558 1557 1556 1555 1554 1553 1551 1550 1548 1546 1544 1542 1539 1537 1535 1533 1531 1528
1564 1564 1565 1565 1565 1565 1565 1565 1565 1565 1565 1565 1564 1564 1563 1562 1561 1560 1559 1558 1557 1556 1555 1553 1552 1551 1550 1548 1547 1545 1543 1540 1538 1536 1533 1531 1529 1527
1563 1564 1564 1564 1565 1565 1565 1565 1564 1564 1564 1564 1564 1563 1562 1561 1560 1559 1557 1556 1555 1554 1553 1552 1550 1548 1547 1546 1545 1543 1541 1539 1537 1534 1532 1529 1527 1525
1563 1563 1564 1564 1564 1564 1564 1564 1564 1564 1563 1563 1562 1561 1561 1560 1559 1558 1556 1555 1554 1553 1552 1550 1548 1546 1545 1544 1543 1541 1539 1536 1534 1532 1530 1527 1525 1522
1562 1562 1563 1563 1563 1563 1563 1563 1563 1563 1562 1562 1561 1560 1559 1558 1557 1556 1555 1554 1553 1552 1551 1549 1547 1545 1544 1542 1540 1538 1536 1534 1532 1529 1527 1525 1522 1520
1560 1561 1562 1562 1562 1562 1562 1562 1562 1561 1561 1560 1559 1558 1558 1557 1556 1555 1554 1553 1552 1551 1550 1548 1546 1544 1542 1539 1537 1535 1533 1531 1529 1526 1524 1522 1519 1517
1559 1560 1561 1561 1561 1561 1561 1560 1560 1559 1559 1558 1558 1557 1556 1556 1555 1553 1552 1551 1550 1549 1547 1545 1544 1541 1539 1537 1535 1532 1530 1528 1526 1523 1521 1518 1515 1513
1558 1558 1559 1559 1559 1559 1559 1558 1558 1557 1557 1557 1556 1555 1555 1554 1552 1551 1550 1548 1547 1546 1545 1543 1541 1539 1536 1534 1532 1529 1527 1525 1522 1520 1517 1515 1512 1510
1556 1556 1557 1557 1557 1557 1557 1556 1556 1556 1555 1555 1554 1553 1552 1551 1550 1549 1547 1546 1544 1542 1541 1539 1538 1536 1534 1532 1529 1526 1524 1521 1519 1516 1513 1510 1508 1506
1553 1554 1554 1555 1555 1555 1555 1554 1554 1553 1553 1552 1552 1551 1550 1549 1547 1546 1545 1543 1542 1540 1538 1536 1534 1531 1529 1527 1527 1523 1520 1518 1515 1512 1510 1506 1503 1501
1551 1551 1552 1552 1553 1553 1553 1552 1552 1551 1551 1550 1549 1548 1547 1546 1545 1544 1542 1540 1539 1537 1535 1533 1531 1528 1525 1522 1521 1521 1517 1514 1511 1508 1506 1502 1499 1496
1548 1548 1549 1550 1550 1550 1550 1550 1550 1549 1549 1548 1547 1546 1545 1544 1542 1541 1539 1538 1536 1534 1532 1531 1528 1526 1524 1521 1518 1516 1515 1511 1507 1504 1501 1498 1495 1492
1545 1546 1546 1547 1547 1548 1548 1548 1547 1547 1546 1545 1544 1543 1542 1541 1540 1538 1537 1535 1533 1531 1529 1527 1525 1524 1521 1518 1514 1511 1510 1508 1505 1502 1497 1494 1489 1486
1542 1543 1544 1544 1545 1545 1545 1545 1545 1544 1543 1542 1542 1540 1539 1538 1536 1535 1533 1532 1530 1528 1526 1524 1522 1519 1517 1514 1510 1507 1505 1502 1500 1498 1495 1492 1488 1482
1539 1540 1541 1542 1542 1542 1542 1542 1541 1541 1540 1539 1538 1537 1536 1534 1533 1532 1530 1528 1527 1524 1522 1520 1517 1515 1513 1510 1507 1504 1501 1498 1494 1491 1489 1487 1485 1481